Weather Roundup
Issued by NWS Chicago, IL

Home | Current Version | Previous Version | Text Only | Print | Product List | Glossary Off
Versions: 1 2 3 4 5 6 7 8 9 10 11 12 13 14 15 16 17 18 19 20 21 22 23 24 25 26 27 28 29 30 31 32 33 34 35 36 37 38 39 40 41 42 43 44 45 46 47 48 49 50

000
NZUS59 KLOT 010208
HRRLOT

CHICAGO AREA WEATHER ROUNDUP
NATIONAL WEATHER SERVICE CHICAGO/ROMEOVILLE IL
900 PM CDT MON AUG 31 2015

NOTE: "FAIR" INDICATES FEW OR NO CLOUDS BELOW 12,000 FEET WITH NO
SIGNIFICANT WEATHER AND/OR OBSTRUCTIONS TO VISIBILITY.

* THESE STATIONS ARE NOT UNDER NWS QUALITY CONTROL. THEY ALSO MAY NOT
  REPORT WEATHER SUCH AS PRECIPITATION OR FOG.

ILZ005-006-012>014-019>023-010300-
NORTHEAST ILLINOIS

CITY           SKY/WX    TMP DP  RH WIND       PRES   REMARKS
OHARE          CLEAR     75  68  78 E3        30.03R
MIDWAY         CLEAR     79  68  69 E5        30.03R HX  81
AURORA         CLEAR     72  69  90 CALM      30.03R FOG
LANSING*       CLEAR     74  69  85 CALM      30.04R
JOLIET*        CLEAR     73  71  92 CALM      30.03R
WAUKEGAN       CLEAR     69  67  93 SE3       30.03R
DUPAGE AIRPORT CLEAR     72  68  87 CALM      30.03R
WHEELING       CLEAR     72  66  81 E3        30.04R
KANKAKEE*      CLEAR     73  70  91 CALM      30.05R
MORRIS*        CLEAR     76  70  82 S3        30.02R
LEWIS AIRPORT* CLEAR     74  66  76 S5        30.04R
NORTHERLY IS     N/A     71  67  87 CALM        N/A
$$

WIZ051-052-058>065-066-070>072-010300-
SOUTHEAST WISCONSIN

CITY           SKY/WX    TMP DP  RH WIND       PRES   REMARKS
MILWAUKEE      PTCLDY    70  65  84 S8        30.03R
KENOSHA*       CLEAR     70  65  84 SE5       30.04R
RACINE*        CLEAR     70  65  84 S6        30.05R
BURLINGTON     FOG       66  65  97 CALM      30.03R VSB 1/2
WAUKESHA       CLEAR     70  66  88 SW6       30.03S
WEST BEND      CLEAR     68  64  88 CALM      30.03R
$$

INZ001>003-010>013-019-020-010300-
NORTHWEST INDIANA

CITY           SKY/WX    TMP DP  RH WIND       PRES   REMARKS
GARY*          NOT AVBL
MICHIGAN CITY* NOT AVBL
RENSSELAER*    NOT AVBL
VALPARAISO     PTCLDY    73  70  90 CALM      30.06R
$$

LMZ740>746-010300-
SOUTHERN LAKE MICHIGAN

STATION/POSITION TIME  SKY/WX   TEMP WIND        PRES    VSBY
                                AIR  DIR/SP/G
                 (UTC)          (F)  (DEG/KT/KT) (MB)    (MI)
HARRISON CRIB    0100            72  160/  4/  6   N/A
BURNHAM HARBOR   0200            71     CALM       N/A
CALUMET HARBOR   0100            73  100/  3/  5   N/A
BURNS HARBOR     0100            78  110/  7/  9 1017.3R
MICHIGAN CITY    0100            76   90/  4/  5   N/A
$$

ABBREVIATIONS USED IN REMARKS
   TC - TEMPERATURE IN CELSIUS
  WCI - WIND CHILL INDEX
   HX - HEAT INDEX
  VSB - VISIBILITY
$$



USA.gov is the U.S. government's official web portal to all federal, state and local government web resources and services.